About 2500 square degrees of sky south of declination -25 degrees and/or near the galactic plane were surveyed for bright outer solar system objects. This survey is one of the first large scale southern sky and galactic plane surveys to detect dwarf planets and other bright Kuiper Belt objects in the trans-Neptunian region. The survey was able to obtain a limiting R-band magnitude of 21.6. In all, 18 outer solar system objects were detected, including Pluto which was detected near the galactic center using optimal image subtraction techniques to remove the high stellar density background. Fourteen of the detections were previously unknown trans-Neptunian objects, demonstrating that the southern sky had not been well-searched to date for bright outer solar system objects. Assuming moderate albedos, several of the new discoveries from this survey could be in hydrostatic equilibrium and thus be considered dwarf planets. Combining this survey with previous surveys from the northern hemisphere suggests that the Kuiper Belt is nearly complete to around 21st magnitude in the R-band. All the main dynamical classes in the Kuiper Belt are occupied by at least one dwarf planet sized object. The 3:2 Neptune resonance, which is the innermost well-populated Neptune resonance, has several large objects while the main outer Neptune resonances such as the 5:3, 7:4, 2:1, and 5:2 do not appear have any large objects. This indicates that the outer resonances are either significantly depleted in objects relative to the 3:2 resonance or have a significantly different assortment of objects than the 3:2 resonance. For the largest objects (H<4.5 mag), the scattered disk population appears to have a few times more objects than the main Kuiper Belt population, while the Sedna population could be several times more than that of the main Kuiper Belt.

Read more (415kb, PDF)



__________________


L

Posts: 131433
Date:
Twelve Plutinos
Permalink  
 


Orbital elements:
2004 HX78
Epoch 2011 Feb. 8.0 TT = JDT 2455600.5                  MPC
M 357.95644              (2000.0)            P               Q
n   0.00398889     Peri.   19.76394     -0.37263066     +0.90350174
a  39.3763012      Node   228.98963     -0.88468443     -0.41475455
e   0.1518590      Incl.   16.29563     -0.28014255     +0.10799660
P 247              H    7.8           G   0.15           U   4


2004 HY78
Epoch 2011 Feb. 8.0 TT = JDT 2455600.5                  MPC
M 359.60699              (2000.0)            P               Q
n   0.00401802     Peri.  194.20709     -0.77505378     +0.62502021
a  39.1857550      Node    25.21094     -0.55636053     -0.60523407
e   0.1934100      Incl.   12.60557     -0.29959071     -0.49299235
P 245              H    8.3           G   0.15           U   3


2004 HZ78
Epoch 2011 Feb. 8.0 TT = JDT 2455600.5                  MPC
M 337.58993              (2000.0)            P               Q
n   0.00397504     Peri.  221.43805     -0.39495644     +0.91320689
a  39.4676659      Node    25.78180     -0.77046130     -0.26977354
e   0.1492076      Incl.   13.33431     -0.50039863     -0.30541025
P 248              H    7.3           G   0.15           U   3


2004 HA79
Epoch 2011 Feb. 8.0 TT = JDT 2455600.5                  MPC
M  80.74082              (2000.0)            P               Q
n   0.00400617     Peri.  262.12200     -0.23509069     -0.95988303
a  39.2629615      Node   203.27755     +0.97196575     -0.23153924
e   0.2468517      Incl.   22.75113     +0.00386542     -0.15815864
P 246              H    7.2           G   0.15           U   4


2004 HB79
Epoch 2011 Feb. 8.0 TT = JDT 2455600.5                  MPC
M 341.56562              (2000.0)            P               Q
n   0.00402271     Peri.  189.31937     -0.31059743     +0.94964572
a  39.1552578      Node    62.59476     -0.86908386     -0.26613249
e   0.2271377      Incl.    2.66372     -0.38499672     -0.16536782
P 245              H    8.7           G   0.15           U   4


2004 KB19
Epoch 2011 Feb. 8.0 TT = JDT 2455600.5                  MPC
M 292.13173              (2000.0)            P               Q
n   0.00397793     Peri.  286.70231     +0.84239363     +0.49823828
a  39.4485928      Node    44.00153     -0.30814758     +0.75789026
e   0.2201757      Incl.   17.18602     -0.44206112     +0.42114246
P 248              H    7.4           G   0.15           U   4


2004 KC19
Epoch 2011 Feb. 8.0 TT = JDT 2455600.5                  MPC
M 359.69898              (2000.0)            P               Q
n   0.00401365     Peri.    7.18886     -0.37828856     +0.92171370
a  39.2141734      Node   240.61614     -0.85412169     -0.38323094
e   0.2352358      Incl.    5.64323     -0.35689481     -0.05981563
P 246              H    8.3           G   0.15           U   3


2004 MS8
Epoch 2011 Feb. 8.0 TT = JDT 2455600.5                  MPC
M  15.13254              (2000.0)            P               Q
n   0.00396734     Peri.  345.58984     +0.07381259     +0.97673665
a  39.5187208      Node   288.33442     -0.89270006     -0.02528629
e   0.2991222      Incl.   12.24578     -0.44456530     +0.21294630
P 248              H    8.3           G   0.15           U   4


2004 VX130
Epoch 2011 Feb. 8.0 TT = JDT 2455600.5                  MPC
M  53.05035              (2000.0)            P               Q
n   0.00394076     Peri.  292.43998     +0.91625775     +0.39443806
a  39.6962537      Node    44.41243     -0.32089210     +0.82719554
e   0.2110925      Incl.    5.73499     -0.23979157     +0.40020764
P 250              H    7.7           G   0.15           U   3


2004 VY130
Epoch 2011 Feb. 8.0 TT = JDT 2455600.5                  MPC
M   8.59938              (2000.0)            P               Q
n   0.00395448     Peri.  180.67450     +0.73131714     -0.67155130
a  39.6043640      Node   222.33908     +0.62658262     +0.73052011
e   0.2810464      Incl.   10.18871     +0.26938718     +0.12393230
P 249              H    8.1           G   0.15           U   2


2004 VZ130
Epoch 2011 Feb. 8.0 TT = JDT 2455600.5                  MPC
M  23.95773              (2000.0)            P               Q
n   0.00392230     Peri.  334.89556     +0.96069067     -0.24584882
a  39.8207085      Node    40.03659     +0.27629698     +0.80137262
e   0.2862568      Incl.   11.56505     +0.02708165     +0.54530751
P 251              H    8.9           G   0.15           U   2


2005 CD81
Epoch 2011 Feb. 8.0 TT = JDT 2455600.5                  MPC
M 183.21482              (2000.0)            P               Q
n   0.00401599     Peri.    2.79877     +0.77131258     +0.58762824
a  39.1989527      Node   317.87640     -0.59078861     +0.51815869
e   0.1532474      Incl.   21.37655     -0.23673979     +0.62145364
P 245              H    7.1           G   0.15           U   5

MPEC 2011 - G81



__________________


L

Posts: 131433
Date:
RE: Kuiper Belt
Permalink  
 


Title: Observed Binary Fraction Sets Limits on the Extent of Collisional Grinding in the Kuiper Belt
Authors: David Nesvorny, David Vokrouhlicky, William F. Bottke, Keith Noll, Harold F. Levison

The size distribution in the cold classical Kuiper belt can be approximated by two idealized power laws: one with steep slope for radii R>R* and one with shallow slope for R<R*, where R*~25-50 km. Previous works suggested that the SFD roll-over at R* can be the result of extensive collisional grinding in the Kuiper belt that led to the catastrophic disruption of most bodies with R<R*. Here we use a new code to test the effect of collisions in the Kuiper belt. We find that the observed roll-over could indeed be explained by collisional grinding provided that the initial mass in large bodies was much larger than the one in the present Kuiper belt, and was dynamically depleted. In addition to the size distribution changes, our code also tracks the effects of collisions on binary systems. We find that it is generally easier to dissolve wide binary systems, such as the ones existing in the cold Kuiper belt today, than to catastrophically disrupt objects with R~R*. Thus, the binary survival sets important limits on the extent of collisional grinding in the Kuiper belt. We find that the extensive collisional grinding required to produce the SFD roll-over at R* would imply a strong gradient of the binary fraction with R and separation, because it is generally easier to dissolve binaries with small components and/or those with wide orbits. The expected binary fraction for R<R* is <0.1. The present observational data do not show such a gradient. Instead, they suggest a large binary fraction of ~0.4 for R=30-40 km. This may indicate that the roll-over was not produced by disruptive collisions, but is instead a fossil remnant of the KBO formation process.

Read more (65kb, PDF)

__________________


L

Posts: 131433
Date:
Permalink  
 

Haleakala's new Pan-STARRS-1 telescope might help scientists identify a host of new objects

In the outer reaches of the solar system, in a mysterious and remote area known as the Kuiper Belt, spins one dwarf planet named after the Hawaiian goddess of fertility and childbirth and another bearing the name of Rapa Nui's birdlike god of creation.
Haumea and Makemake - and the former, demoted planet Pluto - are among five larger identified objects in the Kuiper Belt, a collection of oddball rocks and ice beyond the orbit of Neptune.
And as a new telescope atop Haleakala is quickly enumerating, the largely unexplored region is proving to be home to thousands of smaller objects that could one day carry the names of other Polynesian deities.

Read more

__________________


L

Posts: 131433
Date:
Permalink  
 

Kuiper Belt may be born of collisions

